NOAA 16 DEB, 41540

Orbit data source: Space-Track

NOAA 16 DEB, 41540 is space debris in SSO originally from a launch on Thu, 21 Sep 2000 UTC launched from the Air Force Western Test Range (AFWTR). Debris objects in space refer to the collection of defunct objects orbiting the Earth. Examples of debris include non-operational satellites, rocket bodies, and fragments generated from explosions, collisions, or faulty payload assembly.

Loading next visibility...
Identifier
41540, 2000-055NQ
Orbit
SSO
Country
Flag of USUS
Related business
Manufacturer
Unknown
Mission
Spacecraft
Bus & Motor
Unknown
Mass
Unknown
Launch date (UTC)
2000-09-21 (25 years ago)
Launch vehicle
Unknown
Launch site
Air Force Western Test Range (AFWTR)
Object type
Payload
Rocket body
Debris
Shape & HBR
Unknown shape, 0.1 m
Radar Cross Section
Small (<0.1 m²)

Expand to show TLE details & history
Last TLE update: 2 days ago

TLE from 2 days ago
0 NOAA 16 DEB
1 41540U 00055NQ  25350.88489363  .00002584  00000-0  12914-2 0  9996
2 41540  98.7092  27.1396 0032347 340.4604  19.5329 14.17373155497577
Epoch: 2025-12-16T21:14Z
TLE epoch observation values (Epoch: 2025-12-16T21:14:14.809Z)
Latitude
-0.00004°
Longitude
-17.18479°
Altitude
815.178 km
Speed
7.457 km/s
True Right ascension
01h 48m 33s
True Declination
0° 00' 00"
Sunlit
Object was in full shadow at epoch
Visualization orbit readout
Latitude
Unknown
Longitude
Unknown
Altitude
Unknown
Speed
Unknown
Apparent Right ascension
Unknown
Apparent Declination
Unknown
Sunlit
N/A
Visualization observer readout
Local Sidereal Time
19:24:49
Azimuth
Unknown
Elevation
Unknown
Doppler factor
Unknown
Orbital elements
Apogee altitude
854.733 km
Perigee altitude
808.092 km
Semi-major axis
7,209.549 km
Eccentricity
0.00323
Inclination
98.7092°
RAAN
27.1396°
Arg. of periapsis
340.4604°
True anomaly
19.65731°
Mean anomaly
19.5329°
Eccentric anomaly
19.59506°
Mean motion
3.54553 °/min
Orbital period
101.54 mins
BSTAR
0.0012914
Loading maneuver chart data...
Computing Atmospheric mass density...
Loading historical data...
Loading historical data...
Loading historical data...
Loading historical data...
Loading historical data...
Loading historical data...
Loading historical data...

Documentation

Showing up to 5 results
|